Home > Weather > Sochi > Past weeks

Flag for Russia Weather for the Past 2 Weeks in Sochi, Russia

Now
54 °F

Passing clouds.


Feels Like: 50 °F
Forecast: 52 / 59 °F
Wind: 10 mph from Northeast

Location: Adler

Current Time: Feb 13, 2016 at 11:31:00 PM

Latest Report: Feb 13, 2016 at 11:00 PM


Visibility: N/A

Pressure: 29.92 "Hg

Humidity: 58%

Dew point: 39 °F

Location of SochiLocation

Historic Weather in Sochi — Graph

°F

Sochi Temperature Yesterday

Maximum temperature yesterday: 55 °F (at 12:30 PM)
Minimum temperature yesterday: 43 °F (at 8:00 AM)
Average temperature yesterday: 51 °F

High & Low Weather Summary for the Past Weeks

 TemperatureHumidityPressure
High64 °F (Feb 13, 12:00 PM)100% (Feb 9, 5:30 AM)30.45 "Hg (Feb 9, 5:30 AM)
Low34 °F (Feb 9, 5:00 AM)30% (Feb 11, 6:00 PM)29.77 "Hg (Feb 5, 10:30 PM)
Average46 °F69%30.14 "Hg
* Reported Jan 29 10:00 PM — Feb 13 10:00 PM, Sochi, Weather by CustomWeather, © 2016

Note: Actual official high and low records may vary slightly from our data, if they occured in-between our weather recording intervals... More about our weather records

Advertising

Sochi Weather History for the Previous 24 Hours

 ConditionsComfort  
Time TempWeatherWind HumidityBarometerVisibility
10:00 PM
Sat, Feb 13
48 °FPassing clouds.6 mph76%29.92 "HgN/A
9:30 PM48 °FPassing clouds.3 mph76%29.92 "HgN/A
9:00 PM52 °FPassing clouds.3 mph67%29.92 "HgN/A
8:30 PM54 °FPassing clouds.3 mph58%29.92 "HgN/A
8:00 PM52 °FPassing clouds.6 mph67%29.92 "HgN/A
7:30 PM52 °FPassing clouds.6 mph72%29.92 "HgN/A
7:00 PM50 °FPassing clouds.3 mph76%29.92 "HgN/A
6:30 PM54 °FPartly sunny.3 mph67%29.92 "HgN/A
6:00 PM57 °FOvercast.3 mph59%29.92 "HgN/A
5:30 PM55 °FOvercast.3 mph63%29.92 "HgN/A
5:00 PM61 °FClear.6 mph48%29.92 "HgN/A
4:30 PM63 °FClear.8 mph39%29.92 "HgN/A
4:00 PM63 °FClear.10 mph42%29.92 "HgN/A
3:30 PM63 °FClear.10 mph42%29.92 "HgN/A
3:00 PM63 °FClear.10 mph42%29.95 "HgN/A
2:30 PM64 °FPartly sunny.10 mph40%29.95 "HgN/A
2:00 PM64 °FPartly sunny.13 mph40%29.95 "HgN/A
1:30 PM64 °FPartly sunny.13 mph40%29.98 "HgN/A
1:00 PM64 °FPartly sunny.10 mph40%29.98 "HgN/A
12:30 PM64 °FPartly sunny.13 mph40%29.98 "HgN/A
12:00 PM64 °FPartly sunny.13 mph40%29.98 "HgN/A
11:30 AM63 °FPartly sunny.13 mph42%30.01 "HgN/A
11:00 AM63 °FPartly sunny.8 mph42%30.01 "HgN/A
10:30 AM63 °FPartly sunny.10 mph42%30.01 "HgN/A
10:00 AM61 °FPartly sunny.8 mph48%30.01 "HgN/A
9:30 AM54 °FPartly sunny.8 mph63%30.04 "HgN/A
9:00 AM50 °FScattered clouds.8 mph67%30.04 "HgN/A
8:30 AM50 °FScattered clouds.8 mph67%30.04 "HgN/A
8:00 AM48 °FPassing clouds.10 mph71%30.04 "HgN/A
7:30 AM46 °FPassing clouds.10 mph76%30.04 "HgN/A
7:00 AM46 °FPassing clouds.15 mph76%30.04 "HgN/A
6:30 AM48 °FPassing clouds.10 mph71%30.07 "HgN/A
6:00 AM48 °FPassing clouds.13 mph71%30.07 "HgN/A
5:00 AM48 °FPassing clouds.13 mph71%30.07 "HgN/A
4:30 AM48 °FPassing clouds.13 mph71%30.07 "HgN/A
4:00 AM48 °FPassing clouds.10 mph76%30.07 "HgN/A
3:30 AM46 °FPassing clouds.13 mph82%30.09 "HgN/A
3:00 AM48 °FPassing clouds.13 mph76%30.09 "HgN/A
2:30 AM48 °FPartly cloudy.13 mph76%30.09 "HgN/A
2:00 AM48 °FPartly cloudy.10 mph76%30.09 "HgN/A
1:30 AM46 °FPartly cloudy.13 mph82%30.09 "HgN/A
1:00 AM46 °FPartly cloudy.13 mph87%30.12 "HgN/A
12:30 AM46 °FPartly cloudy.13 mph87%30.12 "HgN/A
12:00 AM48 °FPartly cloudy.6 mph82%30.12 "HgN/A
11:30 PM
Fri, Feb 12
48 °FPartly cloudy.8 mph82%30.12 "HgN/A
11:00 PM52 °FSprinkles. Overcast.6 mph72%30.12 "HgN/A
Weather by CustomWeather, © 2016

See weather overviewHow to use our weather pages